FW0386 Weather Reports


Display with metric or nautical units.
time (UTC)temp
F
wind
direction
speed
MPH
gust
MPH
rain 1hr
in
rain 24hr
in
rain mn
in
humidity
%
barometer
mb
20260508043049 45 275 0.0 0.0 0.00 0.00 0.00 92 1016.7
20260508041530 44 275 0.0 0.0 0.00 0.00 0.00 92 1016.6
20260508040026 44 275 0.0 1.0 0.00 0.00 0.00 92 1016.5
20260508034533 43 275 0.0 0.0 0.00 0.00 0.00 90 1016.5
20260508033012 44 275 0.0 0.0 0.00 0.00 0.00 90 1016.4
20260508031529 45 275 0.0 0.0 0.00 0.00 0.00 89 1016.1
20260508030034 46 275 0.0 1.0 0.00 0.00 0.00 89 1016.1
20260508024504 45 275 0.0 2.0 0.00 0.00 0.00 90 1016.2
20260508023021 45 280 0.0 1.0 0.00 0.00 0.00 88 1016.2
20260508021542 45 266 0.0 2.0 0.00 0.00 0.00 88 1016.0
20260508020015 46 237 0.0 1.0 0.00 0.00 0.00 87 1016.0
20260508014526 46 266 0.0 2.0 0.00 0.00 0.00 88 1016.0
20260508013052 45 278 0.0 1.0 0.00 0.00 0.00 88 1015.8
20260508011616 45 278 0.0 2.0 0.00 0.00 0.00 89 1015.7
20260508010043 44 278 0.0 1.0 0.00 0.00 0.00 89 1015.7
20260508004551 45 278 0.0 1.0 0.00 0.00 0.00 86 1015.8
20260508003004 46 278 0.0 2.0 0.00 0.00 0.00 86 1015.6
20260508001527 46 257 0.0 1.0 0.00 0.00 0.00 85 1015.6
20260508000004 47 257 0.0 0.0 0.00 0.00 0.00 83 1015.7
20260507234524 48 257 0.0 1.0 0.00 0.00 0.00 82 1015.7
20260507233038 48 255 0.0 1.0 0.00 0.00 0.00 82 1015.8
20260507231609 49 265 0.0 1.0 0.00 0.00 0.00 81 1015.8
20260507230104 49 264 0.0 1.0 0.00 0.00 0.00 80 1015.7
20260507224557 50 264 0.0 1.0 0.00 0.00 0.00 78 1015.7
20260507223035 51 264 0.0 1.0 0.00 0.00 0.00 76 1015.8
20260507221517 52 265 0.0 4.0 0.00 0.00 0.00 75 1015.6
20260507220034 53 260 0.0 7.0 0.00 0.00 0.00 74 1015.7
20260507214603 53 288 0.0 3.0 0.00 0.00 0.00 73 1015.5
20260507213023 53 244 1.0 4.0 0.00 0.00 0.00 73 1015.3
20260507211556 53 288 0.0 2.0 0.00 0.00 0.00 74 1015.2
20260507210008 54 252 0.0 3.0 0.00 0.00 0.00 73 1015.1
20260507204550 55 285 0.0 3.0 0.00 0.00 0.00 72 1015.1
20260507203055 55 296 1.0 7.0 0.00 0.00 0.00 71 1014.8
20260507201538 56 288 2.0 7.0 0.00 0.00 0.00 70 1014.5
20260507200006 56 276 1.0 5.0 0.00 0.00 0.00 69 1014.3
20260507193054 57 283 1.0 6.0 0.00 0.00 0.00 65 1013.9
20260507191516 58 311 2.0 7.0 0.00 0.00 0.00 64 1013.7
20260507190040 58 300 3.0 9.0 0.00 0.00 0.00 63 1013.4
20260507184503 59 271 3.0 6.0 0.00 0.00 0.00 62 1013.2
20260507183011 60 279 1.0 5.0 0.00 0.00 0.00 60 1013.3
20260507181524 60 226 0.0 7.0 0.00 0.00 0.00 59 1013.0
20260507180049 60 221 1.0 5.0 0.00 0.00 0.00 58 1012.7
20260507174604 61 271 0.0 3.0 0.00 0.00 0.00 57 1012.5
20260507173025 62 245 0.0 4.0 0.00 0.00 0.00 54 1012.3
20260507171527 63 283 1.0 4.0 0.00 0.00 0.00 54 1012.0
20260507164638 64 300 0.0 4.0 0.00 0.00 0.00 53 1011.8
20260507163102 63 281 1.0 6.0 0.00 0.00 0.00 52 1011.9
20260507161527 64 234 2.0 6.0 0.00 0.00 0.00 51 1011.9
20260507160114 64 356 1.0 11.0 0.00 0.00 0.00 51 1011.9
20260507154556 64 221 3.0 9.0 0.00 0.00 0.00 50 1011.9
20260507153044 66 254 5.0 12.0 0.00 0.00 0.00 49 1011.8
20260507151507 66 245 3.0 8.0 0.00 0.00 0.00 49 1011.7
20260507150038 67 287 3.0 9.0 0.00 0.00 0.00 48 1011.6
20260507144508 67 257 3.0 10.0 0.00 0.00 0.00 50 1011.4
20260507143036 67 267 3.0 10.0 0.00 0.00 0.00 51 1011.4
20260507141512 67 9 2.0 8.0 0.00 0.00 0.00 52 1011.4
20260507140041 65 290 2.0 8.0 0.00 0.00 0.00 52 1011.5
20260507134600 65 301 2.0 7.0 0.00 0.00 0.00 54 1011.5
20260507133056 65 276 1.0 10.0 0.00 0.00 0.00 54 1011.6
20260507131530 66 311 3.0 10.0 0.00 0.00 0.00 53 1011.6
20260507130107 66 257 1.0 8.0 0.00 0.00 0.00 51 1011.6
20260507124503 67 200 3.0 9.0 0.00 0.00 0.00 51 1011.5
20260507123026 66 236 1.0 8.0 0.00 0.00 0.00 50 1011.5
20260507121541 66 248 3.0 8.0 0.00 0.00 0.00 50 1011.5
20260507120050 67 199 2.0 9.0 0.00 0.00 0.00 50 1011.6
20260507114512 67 245 3.0 8.0 0.00 0.00 0.00 49 1011.5
20260507113019 67 301 3.0 10.0 0.00 0.00 0.00 49 1011.6
20260507111548 66 287 4.0 10.0 0.00 0.00 0.00 51 1011.5
20260507110021 65 235 5.0 9.0 0.00 0.00 0.00 53 1011.5
20260507104533 65 231 1.0 4.0 0.00 0.00 0.00 53 1011.7
20260507103035 66 207 5.0 12.0 0.00 0.00 0.00 52 1011.7
20260507101526 65 141 4.0 13.0 0.00 0.00 0.00 54 1011.7
20260507100035 65 274 2.0 11.0 0.00 0.00 0.00 53 1011.6
20260507094539 65 286 3.0 9.0 0.00 0.00 0.00 54 1011.4
20260507093034 65 281 1.0 5.0 0.00 0.00 0.00 57 1011.4
20260507091548 64 49 0.0 8.0 0.00 0.00 0.00 61 1011.4
20260507090040 62 293 1.0 7.0 0.00 0.00 0.00 62 1011.5
20260507084600 62 284 1.0 8.0 0.00 0.00 0.00 62 1011.5
20260507083027 61 235 1.0 6.0 0.00 0.00 0.00 64 1011.3
20260507081543 59 306 3.0 6.0 0.00 0.00 0.00 66 1011.2
20260507080004 58 174 2.0 12.0 0.00 0.00 0.00 67 1011.1
20260507074533 58 240 3.0 7.0 0.00 0.00 0.00 69 1011.0
20260507073059 59 255 2.0 8.0 0.00 0.00 0.00 69 1011.0
20260507071515 58 227 3.0 8.0 0.00 0.00 0.00 72 1010.9
20260507070020 56 178 3.0 14.0 0.00 0.00 0.00 73 1010.9
20260507064523 56 258 1.0 6.0 0.00 0.00 0.00 76 1010.9
20260507063039 55 200 4.0 10.0 0.00 0.00 0.00 77 1010.8
20260507061548 55 283 2.0 7.0 0.00 0.00 0.00 78 1010.7
20260507060006 55 245 2.0 7.0 0.00 0.00 0.00 79 1010.3
20260507054503 55 278 1.0 7.0 0.00 0.00 0.00 80 1010.3
20260507053033 54 225 2.0 10.0 0.00 0.00 0.00 81 1010.3
20260507051544 54 236 2.0 7.0 0.00 0.00 0.00 81 1010.2
20260507050110 54 253 1.0 6.0 0.00 0.00 0.00 82 1010.0
20260507044602 54 285 1.0 8.0 0.00 0.00 0.00 83 1009.7